DW2633 Weather Reports


time (UTC)temp
C
wind
direction
speed
KPH
gust
KPH
rain 1hr
cm
rain 24hr
cm
rain mn
cm
humidity
%
barometer
mb
20260510221102 13 275 30.6 0.0 0.00 0.00 0.00 60 1012.7
20260510220600 13 267 33.8 0.0 0.00 0.00 0.00 59 1012.6
20260510220058 13 279 32.2 0.0 0.00 0.00 0.00 59 1012.6
20260510215558 14 284 32.2 0.0 0.00 0.00 0.00 59 1012.6
20260510215059 14 277 32.2 0.0 0.00 0.00 0.00 60 1012.6
20260510214608 14 282 30.6 0.0 0.00 0.00 0.00 59 1012.5
20260510214056 14 284 30.6 0.0 0.00 0.00 0.00 59 1012.4
20260510213555 15 292 32.2 0.0 0.00 0.00 0.00 59 1012.4
20260510213055 15 270 27.4 0.0 0.00 0.00 0.00 59 1012.3
20260510212554 15 278 25.7 0.0 0.00 0.00 0.00 60 1012.3
20260510212053 15 269 32.2 0.0 0.00 0.00 0.00 59 1012.2
20260510211556 15 281 32.2 0.0 0.00 0.00 0.00 58 1012.3
20260510211054 15 289 29.0 0.0 0.00 0.00 0.00 59 1012.0
20260510210553 15 283 29.0 0.0 0.00 0.00 0.00 57 1011.9
20260510210052 15 264 27.4 0.0 0.00 0.00 0.00 61 1011.9
20260510205551 15 288 24.1 0.0 0.00 0.00 0.00 61 1011.8
20260510205052 15 277 24.1 0.0 0.00 0.00 0.00 63 1011.8
20260510204557 15 288 29.0 0.0 0.00 0.00 0.00 57 1011.9
20260510204054 15 281 30.6 0.0 0.00 0.00 0.00 57 1011.8
20260510203550 15 297 27.4 0.0 0.00 0.00 0.00 57 1011.7
20260510203050 15 282 27.4 0.0 0.00 0.00 0.00 63 1011.8
20260510202550 15 267 30.6 0.0 0.00 0.00 0.00 58 1011.7
20260510202050 15 269 32.2 0.0 0.00 0.00 0.00 59 1011.7
20260510201550 15 265 32.2 0.0 0.00 0.00 0.00 57 1011.5
20260510201053 15 264 32.2 0.0 0.00 0.00 0.00 60 1011.6
20260510200550 15 269 32.2 0.0 0.00 0.00 0.00 59 1011.7
20260510200106 15 267 29.0 0.0 0.00 0.00 0.00 59 1011.7
20260510195549 16 290 24.1 0.0 0.00 0.00 0.00 61 1011.7
20260510195049 15 266 24.1 0.0 0.00 0.00 0.00 60 1011.7
20260510194554 15 261 29.0 0.0 0.00 0.00 0.00 62 1011.7
20260510194051 15 252 32.2 0.0 0.00 0.00 0.00 59 1011.7
20260510193549 15 264 30.6 0.0 0.00 0.00 0.00 60 1011.7
20260510193054 15 265 32.2 0.0 0.00 0.00 0.00 63 1011.8
20260510192548 15 263 32.2 0.0 0.00 0.00 0.00 63 1011.8
20260510192048 15 262 30.6 0.0 0.00 0.00 0.00 65 1011.8
20260510191548 15 273 29.0 0.0 0.00 0.00 0.00 61 1011.9
20260510191048 15 267 30.6 0.0 0.00 0.00 0.00 61 1011.9
20260510190547 15 267 29.0 0.0 0.00 0.00 0.00 62 1011.9
20260510190048 15 267 30.6 0.0 0.00 0.00 0.00 64 1012.0
20260510185549 15 257 29.0 0.0 0.00 0.00 0.00 63 1012.0
20260510185046 15 275 27.4 0.0 0.00 0.00 0.00 62 1011.8
20260510184555 15 265 30.6 0.0 0.00 0.00 0.00 62 1011.9
20260510184047 15 272 32.2 0.0 0.00 0.00 0.00 63 1011.9
20260510183546 15 261 29.0 0.0 0.00 0.00 0.00 63 1011.9
20260510183046 15 269 29.0 0.0 0.00 0.00 0.00 65 1011.9
20260510182550 15 271 30.6 0.0 0.00 0.00 0.00 57 1011.9
20260510182045 15 273 29.0 0.0 0.00 0.00 0.00 63 1011.8
20260510181549 15 260 25.7 0.0 0.00 0.00 0.00 61 1011.9
20260510181045 15 253 25.7 0.0 0.00 0.00 0.00 67 1012.0
20260510180544 15 240 27.4 0.0 0.00 0.00 0.00 67 1011.9
20260510180044 15 220 27.4 0.0 0.00 0.00 0.00 66 1011.9
20260510175542 15 232 25.7 0.0 0.00 0.00 0.00 65 1011.9
20260510175044 15 219 22.5 0.0 0.00 0.00 0.00 71 1011.9
20260510174549 15 241 19.3 0.0 0.00 0.00 0.00 65 1011.9
20260510174041 15 234 17.7 0.0 0.00 0.00 0.00 62 1011.8
20260510173540 15 246 19.3 0.0 0.00 0.00 0.00 67 1011.7
20260510173040 15 236 20.9 0.0 0.00 0.00 0.00 66 1011.7
20260510172539 15 225 19.3 0.0 0.00 0.00 0.00 71 1011.7
20260510172039 15 238 20.9 0.0 0.00 0.00 0.00 72 1011.6
20260510171539 14 227 20.9 0.0 0.00 0.00 0.00 74 1011.7
20260510171034 14 225 19.3 0.0 0.00 0.00 0.00 75 1011.6
20260510170534 13 245 17.7 0.0 0.00 0.00 0.00 74 1011.7
20260510170032 13 230 17.7 0.0 0.00 0.00 0.00 74 1011.7
20260510165531 13 214 17.7 0.0 0.00 0.00 0.00 76 1011.7
20260510165030 13 244 16.1 0.0 0.00 0.00 0.00 80 1011.7
20260510164528 12 225 14.5 0.0 0.00 0.00 0.00 78 1011.8
20260510164026 12 242 14.5 0.0 0.00 0.00 0.00 79 1011.9
20260510163528 12 224 12.9 0.0 0.00 0.00 0.00 81 1011.9
20260510163027 12 217 12.9 0.0 0.00 0.00 0.00 80 1011.9
20260510162525 12 230 14.5 0.0 0.00 0.00 0.00 81 1012.0
20260510162023 12 238 12.9 0.0 0.00 0.00 0.00 84 1011.9
20260510161522 12 221 11.3 0.0 0.00 0.00 0.00 85 1012.0
20260510161021 11 240 12.9 0.0 0.00 0.00 0.00 88 1011.9
20260510160520 11 225 12.9 0.0 0.00 0.00 0.00 90 1011.9
20260510160023 11 227 11.3 0.0 0.00 0.00 0.00 89 1012.0
20260510155520 11 241 11.3 0.0 0.00 0.00 0.00 89 1012.1
20260510155017 11 238 11.3 0.0 0.00 0.00 0.00 91 1012.1
20260510154517 10 237 9.7 0.0 0.00 0.00 0.00 91 1012.1
20260510154015 10 239 8.0 0.0 0.00 0.00 0.00 92 1012.0
20260510153514 10 247 8.0 0.0 0.00 0.00 0.00 93 1012.1
20260510153014 10 243 8.0 0.0 0.00 0.00 0.00 93 1012.0
20260510152513 10 273 8.0 0.0 0.00 0.00 0.00 92 1012.0
20260510152013 10 250 9.7 0.0 0.00 0.00 0.00 94 1012.1
20260510151513 10 245 8.0 0.0 0.00 0.00 0.00 94 1012.0
20260510151012 10 242 8.0 0.0 0.00 0.00 0.00 94 1012.1
20260510150513 10 285 8.0 0.0 0.00 0.00 0.00 94 1011.9
20260510150018 10 290 9.7 0.0 0.00 0.00 0.00 94 1011.8
20260510145510 10 282 9.7 0.0 0.00 0.00 0.00 95 1011.7
20260510145010 10 274 12.9 0.0 0.00 0.00 0.00 95 1011.6
20260510144519 10 300 17.7 0.0 0.00 0.00 0.00 94 1011.7
20260510144009 10 323 19.3 0.0 0.00 0.00 0.00 95 1011.6
20260510143507 10 267 12.9 0.0 0.00 0.00 0.00 96 1011.4
20260510143014 10 259 8.0 0.0 0.00 0.00 0.00 96 1011.3
20260510142506 10 252 8.0 0.0 0.00 0.00 0.00 96 1011.2
20260510142006 10 249 9.7 0.0 0.00 0.00 0.00 96 1011.3
20260510141519 10 261 9.7 0.0 0.00 0.00 0.00 96 1011.2
20260510141008 10 265 8.0 0.0 0.00 0.00 0.00 96 1011.3
20260510140508 10 250 4.8 0.0 0.00 0.00 0.00 96 1011.2
20260510140005 10 224 1.6 0.0 0.00 0.00 0.00 96 1011.1
20260510135503 10 223 0.0 0.0 0.00 0.00 0.00 96 1010.9
20260510135003 10 223 1.6 0.0 0.00 0.00 0.00 96 1010.8
20260510134503 10 223 1.6 0.0 0.00 0.00 0.00 96 1010.7
20260510134002 10 221 0.0 0.0 0.00 0.00 0.00 96 1010.7
20260510133502 10 221 1.6 0.0 0.00 0.00 0.00 96 1010.7
20260510133002 10 146 3.2 0.0 0.00 0.00 0.00 96 1010.5
20260510132503 10 146 4.8 0.0 0.00 0.00 0.00 96 1010.2
20260510132004 10 234 6.4 0.0 0.00 0.00 0.00 96 1010.5
20260510131502 10 248 9.7 0.0 0.00 0.00 0.00 96 1010.8
20260510131001 10 269 14.5 0.0 0.00 0.00 0.00 96 1010.7
20260510130501 10 283 12.9 0.0 0.00 0.00 0.00 96 1010.9
20260510130100 10 271 9.7 0.0 0.00 0.00 0.00 96 1010.5
20260510125558 10 272 8.0 0.0 0.00 0.00 0.00 96 1010.4
20260510125057 10 276 4.8 0.0 0.00 0.00 0.00 96 1010.2
20260510124603 10 241 3.2 0.0 0.00 0.00 0.00 96 1010.0
20260510124057 10 237 1.6 0.0 0.00 0.00 0.00 96 1010.0
20260510123557 10 205 0.0 0.0 0.00 0.00 0.00 96 1010.0
20260510123108 10 205 1.6 0.0 0.00 0.00 0.00 97 1009.8
20260510122556 10 204 3.2 0.0 0.00 0.00 0.00 97 1009.9
20260510122056 10 220 4.8 0.0 0.00 0.00 0.00 97 1010.0
20260510121558 10 246 6.4 0.0 0.00 0.00 0.00 97 1010.0
20260510121057 10 250 6.4 0.0 0.00 0.00 0.00 97 1010.0
20260510120557 10 243 6.4 0.0 0.00 0.00 0.00 97 1010.0
20260510120055 10 243 6.4 0.0 0.00 0.00 0.00 97 1009.9
20260510115555 10 236 4.8 0.0 0.00 0.00 0.00 97 1010.0
20260510115054 10 238 3.2 0.0 0.00 0.00 0.00 97 1009.9
20260510114554 10 231 1.6 0.0 0.00 0.00 0.00 97 1009.7
20260510114053 10 231 1.6 0.0 0.00 0.00 0.00 97 1009.4
20260510113553 10 231 1.6 0.0 0.00 0.00 0.00 96 1009.6
20260510113053 9 230 3.2 0.0 0.00 0.00 0.00 96 1009.4
20260510112553 9 231 4.8 0.0 0.00 0.00 0.00 97 1009.5
20260510112054 9 238 6.4 0.0 0.00 0.00 0.00 97 1009.4
20260510111553 9 228 6.4 0.0 0.00 0.00 0.00 97 1009.6
20260510111052 9 229 6.4 0.0 0.00 0.00 0.00 97 1009.6
20260510110553 9 242 6.4 0.0 0.00 0.00 0.00 97 1009.6
20260510110052 9 239 6.4 0.0 0.00 0.00 0.00 97 1009.7
20260510105553 9 238 3.2 0.0 0.00 0.00 0.00 97 1009.4
20260510105050 9 239 1.6 0.0 0.00 0.00 0.00 97 1009.3
20260510104550 8 152 1.6 0.0 0.00 0.00 0.00 97 1009.1
20260510104048 8 153 3.2 0.0 0.00 0.00 0.00 96 1009.0
20260510103548 8 142 3.2 0.0 0.00 0.00 0.00 96 1008.9
20260510103057 8 192 1.6 0.0 0.00 0.00 0.00 96 1008.9
20260510102547 8 196 1.6 0.0 0.00 0.00 0.00 96 1008.8
20260510102047 8 219 1.6 0.0 0.00 0.00 0.00 96 1008.9
20260510101552 8 221 0.0 0.0 0.00 0.00 0.00 96 1008.9
20260510101047 8 215 0.0 0.0 0.00 0.00 0.00 96 1008.8
20260510100547 8 215 0.0 0.0 0.00 0.00 0.00 96 1008.5
20260510100047 8 215 1.6 0.0 0.00 0.00 0.00 96 1008.5
20260510095547 8 215 3.2 0.0 0.00 0.00 0.00 96 1008.5
20260510095048 8 215 1.6 0.0 0.00 0.00 0.00 96 1008.4
20260510094548 8 221 0.0 0.0 0.00 0.00 0.00 96 1008.4
20260510094045 8 221 0.0 0.0 0.00 0.00 0.00 96 1008.4
20260510093546 8 221 1.6 0.0 0.00 0.00 0.00 95 1008.3
20260510093045 8 221 1.6 0.0 0.00 0.00 0.00 95 1008.3
20260510092544 8 211 1.6 0.0 0.00 0.00 0.00 95 1008.2
20260510092044 8 208 1.6 0.0 0.00 0.00 0.00 95 1008.1
20260510091544 8 149 0.0 0.0 0.00 0.00 0.00 95 1008.0
20260510091044 8 149 0.0 0.0 0.00 0.00 0.00 95 1007.7
20260510090544 8 149 0.0 0.0 0.00 0.00 0.00 95 1007.8
20260510090048 8 149 1.6 0.0 0.00 0.00 0.00 95 1007.9
20260510085542 8 149 1.6 0.0 0.00 0.00 0.00 95 1008.0
20260510085042 8 143 3.2 0.0 0.00 0.00 0.00 95 1008.0
20260510084541 8 143 4.8 0.0 0.00 0.00 0.00 95 1007.9
20260510084041 9 142 4.8 0.0 0.00 0.00 0.00 95 1007.8
20260510083543 9 153 4.8 0.0 0.00 0.00 0.00 96 1008.0
20260510083040 9 156 6.4 0.0 0.00 0.00 0.00 96 1008.0
20260510082539 9 146 6.4 0.0 0.00 0.00 0.00 95 1008.0
20260510082039 9 132 8.0 0.0 0.00 0.00 0.00 96 1007.8
20260510081544 9 142 8.0 0.0 0.00 0.00 0.00 96 1007.8
20260510081039 9 160 6.4 0.0 0.00 0.00 0.00 96 1008.0
20260510080539 9 144 3.2 0.0 0.00 0.00 0.00 96 1008.1
20260510080038 9 159 3.2 0.0 0.00 0.00 0.00 96 1008.2
20260510075537 9 184 3.2 0.0 0.00 0.00 0.00 96 1008.0
20260510075037 9 154 3.2 0.0 0.00 0.00 0.00 96 1008.0
20260510074537 9 163 8.0 0.0 0.00 0.00 0.00 96 1007.9
20260510074037 9 155 8.0 0.0 0.00 0.00 0.00 96 1007.6
20260510073535 9 138 4.8 0.0 0.00 0.00 0.00 96 1007.6
20260510073036 9 150 4.8 0.0 0.00 0.00 0.00 96 1007.9
20260510072535 9 151 6.4 0.0 0.00 0.00 0.00 96 1007.8
20260510072035 9 138 6.4 0.0 0.00 0.00 0.00 96 1007.2
20260510071535 9 153 8.0 0.0 0.00 0.00 0.00 96 1007.6
20260510071034 9 152 9.7 0.0 0.00 0.00 0.00 95 1007.5
20260510070536 10 137 9.7 0.0 0.00 0.00 0.00 95 1007.3
20260510070036 10 144 9.7 0.0 0.00 0.00 0.00 95 1007.9
20260510065534 10 128 9.7 0.0 0.00 0.00 0.00 95 1007.9
20260510065031 10 136 8.0 0.0 0.00 0.00 0.00 95 1008.0
20260510064530 10 148 8.0 0.0 0.00 0.00 0.00 95 1008.4
20260510064029 10 146 6.4 0.0 0.00 0.00 0.00 95 1008.2
20260510063529 10 140 4.8 0.0 0.00 0.00 0.00 95 1008.4
20260510063029 10 207 4.8 0.0 0.00 0.00 0.00 95 1008.5
20260510062528 10 223 4.8 0.0 0.00 0.00 0.00 95 1008.6
20260510062030 10 223 3.2 0.0 0.00 0.00 0.00 96 1008.6
20260510061531 10 234 0.0 0.0 0.00 0.00 0.00 96 1008.8
20260510061030 10 234 1.6 0.0 0.00 0.00 0.00 96 1008.8
20260510060528 10 235 3.2 0.0 0.00 0.00 0.00 96 1008.9
20260510060028 10 222 8.0 0.0 0.00 0.00 0.00 96 1009.1
20260510055527 10 221 11.3 0.0 0.00 0.00 0.00 96 1009.0
20260510055026 10 251 11.3 0.0 0.00 0.00 0.00 95 1009.0
20260510054531 10 259 9.7 0.0 0.00 0.00 0.00 95 1008.8
20260510054024 10 251 8.0 0.0 0.00 0.00 0.00 95 1008.8
20260510053523 10 253 6.4 0.0 0.00 0.00 0.00 95 1008.8
20260510053022 10 246 1.6 0.0 0.00 0.00 0.00 95 1008.5
20260510052521 10 222 3.2 0.0 0.00 0.00 0.00 95 1008.5
20260510052021 10 222 4.8 0.0 0.00 0.00 0.00 95 1008.3
20260510051530 10 233 4.8 0.0 0.00 0.00 0.00 95 1008.3
20260510051020 10 232 4.8 0.0 0.00 0.00 0.00 95 1008.3
20260510050521 10 225 1.6 0.0 0.00 0.00 0.00 95 1008.2
20260510050020 10 209 1.6 0.0 0.00 0.00 0.00 95 1008.1
20260510045526 10 223 1.6 0.0 0.00 0.00 0.00 95 1008.1
20260510045020 10 202 1.6 0.0 0.00 0.00 0.00 95 1008.0
20260510044519 10 185 1.6 0.0 0.00 0.00 0.00 95 1008.0
20260510044019 10 178 1.6 0.0 0.00 0.00 0.00 95 1008.0
20260510043519 10 213 1.6 0.0 0.00 0.00 0.00 95 1008.0
20260510043023 10 203 1.6 0.0 0.00 0.00 0.00 95 1008.1
20260510042518 10 203 0.0 0.0 0.00 0.00 0.00 95 1008.0
20260510042017 10 222 0.0 0.0 0.00 0.00 0.00 95 1008.1
20260510041517 10 237 3.2 0.0 0.00 0.00 0.00 95 1008.2
20260510041017 10 237 4.8 0.0 0.00 0.00 0.00 95 1008.2
20260510040516 10 229 3.2 0.0 0.00 0.00 0.00 95 1008.3
20260510040014 10 238 3.2 0.0 0.00 0.00 0.00 95 1008.2
20260510035516 10 207 4.8 0.0 0.00 0.00 0.00 95 1008.1
20260510035014 10 146 8.0 0.0 0.00 0.00 0.00 96 1008.1
20260510034515 10 173 8.0 0.0 0.00 0.00 0.00 95 1008.0
20260510034017 10 127 8.0 0.0 0.00 0.00 0.00 96 1007.9
20260510033513 10 159 6.4 0.0 0.00 0.00 0.00 95 1008.0
20260510033014 10 149 4.8 0.0 0.00 0.00 0.00 95 1008.0
20260510032513 10 159 6.4 0.0 0.00 0.00 0.00 95 1008.0
20260510032013 10 148 6.4 0.0 0.00 0.00 0.00 95 1008.0
20260510031513 10 130 6.4 0.0 0.00 0.00 0.00 95 1008.0
20260510031014 10 189 8.0 0.0 0.00 0.00 0.00 95 1007.8
20260510030513 10 149 9.7 0.0 0.00 0.00 0.00 95 1007.8
20260510030015 10 136 9.7 0.0 0.00 0.00 0.00 95 1007.8
20260510025513 10 144 11.3 0.0 0.00 0.00 0.00 95 1007.8
20260510025013 10 128 12.9 0.0 0.00 0.00 0.00 95 1007.8
20260510024513 10 139 12.9 0.0 0.00 0.00 0.00 95 1007.9
20260510024013 10 129 11.3 0.0 0.00 0.00 0.00 95 1008.1
20260510023512 10 141 9.7 0.0 0.00 0.00 0.00 95 1008.1
20260510023013 10 147 9.7 0.0 0.00 0.00 0.00 96 1008.1
20260510022516 10 163 8.0 0.0 0.00 0.00 0.00 95 1008.1
20260510022012 10 148 8.0 0.0 0.00 0.00 0.00 95 1008.1
20260510021516 10 144 9.7 0.0 0.00 0.00 0.00 95 1008.1
20260510021011 10 148 9.7 0.0 0.00 0.00 0.00 96 1008.1
20260510020511 10 179 6.4 0.0 0.00 0.00 0.00 95 1007.9
20260510020012 10 146 8.0 0.0 0.00 0.00 0.00 96 1008.0
20260510015511 10 134 9.7 0.0 0.00 0.00 0.00 96 1007.8
20260510015011 10 159 9.7 0.0 0.00 0.00 0.00 96 1007.9
20260510014513 10 153 11.3 0.0 0.00 0.00 0.00 96 1008.0
20260510014010 10 160 11.3 0.0 0.00 0.00 0.00 96 1008.0
20260510013512 10 136 12.9 0.0 0.00 0.00 0.00 96 1008.1
20260510013010 10 131 12.9 0.0 0.00 0.00 0.00 96 1008.0
20260510012513 10 144 12.9 0.0 0.00 0.00 0.00 96 1007.8
20260510012009 10 131 12.9 0.0 0.00 0.00 0.00 96 1007.6
20260510011509 10 132 11.3 0.0 0.00 0.00 0.00 96 1007.8
20260510011009 10 132 9.7 0.0 0.00 0.00 0.00 96 1008.0
20260510010508 10 126 4.8 0.0 0.00 0.00 0.00 96 1008.1
20260510010008 10 157 1.6 0.0 0.00 0.00 0.00 95 1008.1
20260510005508 10 155 4.8 0.0 0.00 0.00 0.00 96 1008.0
20260510005008 10 155 6.4 0.0 0.00 0.00 0.00 95 1007.9
20260510004508 10 136 3.2 0.0 0.00 0.00 0.00 95 1007.8
20260510004011 10 316 1.6 0.0 0.00 0.00 0.00 95 1007.8
20260510003507 10 309 0.0 0.0 0.00 0.00 0.00 95 1007.9
20260510003007 10 309 0.0 0.0 0.00 0.00 0.00 95 1008.0
20260510002510 10 309 1.6 0.0 0.00 0.00 0.00 95 1007.9
20260510002006 10 310 6.4 0.0 0.00 0.00 0.00 95 1008.1
20260510001508 10 310 6.4 0.0 0.00 0.00 0.00 95 1007.9
20260510001006 10 304 4.8 0.0 0.00 0.00 0.00 95 1007.8
20260510000506 10 284 3.2 0.0 0.00 0.00 0.00 95 1007.8
20260510000011 10 284 3.2 0.0 0.00 0.00 0.00 95 1007.7
20260509235506 10 284 3.2 0.0 0.00 0.00 0.00 95 1007.6
20260509235006 10 284 3.2 0.0 0.00 0.00 0.00 95 1007.5
20260509234509 10 283 1.6 0.0 0.00 0.00 0.00 95 1007.4
20260509234009 10 262 0.0 0.0 0.00 0.00 0.00 94 1007.3
20260509233505 10 262 0.0 0.0 0.00 0.00 0.00 95 1007.2
20260509233005 10 262 1.6 0.0 0.00 0.00 0.00 95 1007.2
20260509232507 10 261 0.0 0.0 0.00 0.00 0.00 95 1007.2
20260509232005 10 261 1.6 0.0 0.00 0.00 0.00 95 1007.3
20260509231505 10 261 3.2 0.0 0.00 0.00 0.00 95 1007.3
20260509231004 10 261 3.2 0.0 0.00 0.00 0.00 95 1007.2
20260509230504 10 269 3.2 0.0 0.00 0.00 0.00 95 1007.2
20260509230005 10 274 3.2 0.0 0.00 0.00 0.00 95 1007.1
20260509225505 10 274 3.2 0.0 0.00 0.00 0.00 95 1007.1
20260509225004 10 298 1.6 0.0 0.00 0.00 0.00 95 1007.2
20260509224504 10 298 3.2 0.0 0.00 0.00 0.00 95 1007.1
20260509224003 10 298 4.8 0.0 0.00 0.00 0.00 95 1007.2
20260509223504 10 279 3.2 0.0 0.00 0.00 0.00 95 1007.2
20260509223004 10 222 1.6 0.0 0.00 0.00 0.00 96 1007.2
20260509222503 10 221 1.6 0.0 0.00 0.00 0.00 96 1007.2
20260509222005 10 150 3.2 0.0 0.00 0.00 0.00 96 1007.1
20260509221503 10 159 4.8 0.0 0.00 0.00 0.00 96 1007.2